Regional Weather Roundup
Issued by NWS Midland/Odessa, TX

Skip options and go directly to product.
Home | Oldest Version | Next Version | Current Version | All | Text Only | Save Text | Print | Product List | Glossary On

Skip product version selection by date and time.   
728
ASUS44 KMAF 130301
RWRMAF
MIDLAND AREA WEATHER ROUNDUP
NATIONAL WEATHER SERVICE MIDLAND TX
900 PM CST FRI FEB 12 2016

...IN SOUTHWEST TEXAS AND SOUTHEAST NEW MEXICO...

CITY           SKY/WX    TMP DP  RH WIND       PRES   REMARKS
ALPINE         CLEAR     51  22  32 CALM      30.38R
ANDREWS        FAIR      53  29  40 E9        30.29R
ARTESIA        CLEAR     48  25  40 CALM      30.27S
BIG SPRING     CLEAR     55  30  39 NE10      30.31R
CARLSBAD       CLEAR     44  27  51 W8        30.25R WCI  39
DRYDEN           N/A     62  20  19 VRB5      30.22R
FORT STOCKTON  CLEAR     57  29  34 SE5       30.26R
GUAD PASS      CLEAR     54  19  25 NE23      30.34R
HOBBS          CLEAR     46  27  46 E9        30.30R
MARFA          CLEAR     42  17  36 N8        30.34R WCI  37
MIDLAND AIRPK  CLEAR     59  29  31 E7        30.28S
MIDLAND INTL   CLEAR     58  30  34 E9        30.28R
ODESSA         CLEAR     59  29  31 E13       30.28R
PECOS          CLEAR     56  23  28 CALM      30.25R
PRESIDIO       FAIR      61  13  15 N14       30.21R
SEMINOLE       CLEAR     50  27  40 E6        30.30R
SNYDER           N/A     54  31  41 NE8       30.33R
WINK           CLEAR     55  22  27 E9        30.25R
$$
...OTHER STATIONS IN TEXAS...

CITY           SKY/WX    TMP DP  RH WIND       PRES   REMARKS
ABILENE        CLEAR     54  34  46 E7        30.32R
AMARILLO       CLEAR     48  31  51 SE16      30.35R
AUSTIN         CLEAR     56  44  64 N12       30.27R
BROWNSVILLE    PTCLDY    60  59  96 NE3       30.25R
CORPUS CHRISTI PTCLDY    63  56  78 SE12      30.24R
DALLAS FTW     CLEAR     57  35  43 N5        30.32R
DEL RIO        CLEAR     69  32  25 E8        30.19R
EL PASO        PTCLDY    61  17  18 NW5       30.24S
HOUSTON INT    CLEAR     61  54  77 NE5       30.26R
LUBBOCK        CLEAR     48  29  47 E10       30.32S
SAN ANGELO     CLEAR     55  31  39 E7        30.28R
SAN ANTONIO    CLEAR     66  42  41 E6        30.25R
WACO           CLEAR     52  35  52 N7        30.30R
WICHITA FALLS  NOT AVBL
$$
...OTHER LOCATIONS IN NEW MEXICO...

CITY           SKY/WX    TMP DP  RH WIND       PRES   REMARKS
ALAMAGORDO     CLEAR     54   7  15 E7        30.26S
ALBUQUERQUE    CLEAR     54  19  25 NE6       30.31R
CANNON AFB     CLEAR     49  25  39 SE10      30.31R
CLOVIS         CLEAR     43  21  42 E9        30.33S WCI  37
HOLLOMAN AFB   CLOUDY    51   9  18 E7        30.24S
ROSWELL        CLEAR     45  23  42 SW6       30.26R
RUIDOSO          N/A     48  16  27 E3        30.40S
SANTA FE       CLEAR     42  17  36 NE3       30.34R
TRUTH OR CONSE CLEAR     56   0  10 SW3       30.27R
TUCUMCARI      CLEAR     47  24  40 E5        30.29R
$$

USA.gov is the U.S. government's official web portal to all federal, state and local government web resources and services.